Location: Borovka
(49.7741°N, 14.5280°E)
Time: 23:18:03
(UTC+00:00)

STARS - Visible Passes

Search period start: 13 March 2026 00:00
Search period end: 23 March 2026 00:00
Orbit: 575 x 589 km, 98.1° (Epoch: 13 March)

Date Brightness Start Highest point End Pass type
(mag) Time Alt. Az. Time Alt. Az. Time Alt. Az.
13 Mar ? 02:03:45 10° N 02:04:19 13° N 02:04:19 13° N visible
14 Mar ? 02:09:30 10° N 02:10:09 14° NNW 02:10:09 14° NNW visible
15 Mar ? 00:39:35 10° NNE 00:39:35 10° NNE 00:39:35 10° NNE visible
15 Mar ? 02:15:14 10° N 02:15:59 14° NNW 02:15:59 14° NNW visible
16 Mar ? 00:45:10 10° NNE 00:45:24 11° NNE 00:45:24 11° NNE visible
16 Mar ? 02:20:59 10° N 02:21:48 14° NNW 02:21:48 14° NNW visible
17 Mar ? 00:50:44 10° NNE 00:51:13 13° NNE 00:51:13 13° NNE visible
17 Mar ? 02:26:44 10° NNW 02:27:36 14° NNW 02:27:36 14° NNW visible
18 Mar ? 00:56:19 10° NNE 00:57:01 14° NNE 00:57:01 14° NNE visible
18 Mar ? 02:32:29 10° NNW 02:33:24 14° NNW 02:33:24 14° NNW visible
19 Mar ? 01:01:53 10° NNE 01:02:48 16° NNE 01:02:48 16° NNE visible
19 Mar ? 02:38:15 10° NNW 02:39:11 13° NNW 02:39:11 13° NNW visible
20 Mar ? 01:07:28 10° NNE 01:08:34 18° NNE 01:08:34 18° NNE visible
20 Mar ? 02:44:03 10° NNW 02:44:57 13° NW 02:44:57 13° NW visible
21 Mar ? 01:13:02 10° NNE 01:14:20 20° NNE 01:14:20 20° NNE visible
21 Mar ? 02:49:52 10° NNW 02:50:43 12° NW 02:50:43 12° NW visible
22 Mar ? 01:18:36 10° NNE 01:20:05 22° NNE 01:20:05 22° NNE visible
22 Mar ? 02:55:45 10° NNW 02:56:28 11° NW 02:56:28 11° NW visible
